Tracking 19280 objects as of 14-Nov-2018
HD Live streaming from Space Station
objects crossing your sky now

COSMOS 737

Track COSMOS 737 now!
10-day predictions
COSMOS 737 is classified as:


NORAD ID: 7826
Int'l Code: 1975-045F
Perigee: 1,477.1 km
Apogee: 1,536.0 km
Inclination: 74.0 °
Period: 116.0 minutes
Semi major axis: 7877 km
RCS: 0.701 m2 (medium)
Launch date: May 28, 1975
Source: Commonwealth of Independent States (former USSR) (CIS)
Launch site: PLESETSK MISSILE AND SPACE COMPLEX (PKMTR)
aabbcc
Your satellite tracking list
Your tracking list is empty




NASA's NSSDC Master Catalog

Two Line Element Set (TLE):
1  7826U 75045F   18318.53731062 -.00000017  00000-0 -10860-4 0  9991
2  7826  74.0188 354.7602 0037393 195.7623 274.2836 12.41704917970541
Source of the keplerian elements: AFSPC